[ hide orbit diagram ]
For accurate long-term ephemerides, please instead use our Horizons system.This orbit viewer was implemented using two-body methods, and hence should not be used for determining accurate long-term trajectories (over several years or decades) or planetary encounter circumstances.
|
Orbital Elements at Epoch 2456473.5 (2013-Jun-30.0) TDB
Reference: JPL K183/6 (heliocentric ecliptic J2000)
Element | Value | Uncertainty (1-sigma) | Units |
e | .6993345995045035 | 9.9391e-08 | |
a | 3.099710539738648 | 3.9085e-08 | au |
q | .9319757108506322 | 3.1047e-07 | au |
i | 14.0071028125114 | 1.8042e-05 | deg |
node | 214.0912549894404 | 7.4385e-05 | deg |
peri | 181.9391939260816 | 7.7506e-05 | deg |
M | 57.87363785086353 | 5.4838e-06 | deg |
tp | 2456153.051370563047 (2012-Aug-13.55137056) | 3.2625e-05 | TDB |
period | 1993.334286235504 5.46 | 3.7701e-05 1.032e-07 | d yr |
n | .1806019203531964 | 3.4159e-09 | deg/d |
Q | 5.267445368626664 | 6.6418e-08 | au |
|
Additional Model Parameters
Parameter | Value | Uncertainty (1-sigma) |
A2 [EST] | 1.474775215645868E-10 | 3.857E-13 |
|
| | Orbit Determination Parameters
Additional Information
|
[ show covariance matrix ]
[ show close-approach data ]
Alternate Designations
Perihelion Year (est.) | New-Style Desig | Roman Numeral | Year/ Letter | 2007.2 | 185P/2007 A3 | | |
2001.7 | 185P/2001 Q2 | | |
|
|